Location: Keppel Henge
(44.7900°N, 80.9447°W)
Time: 17:11:06
(UTC-04:00)

Envisat - Pass Details

Date: 10 October 2017
Orbit: 764 x 766 km, 98.2° (Epoch: 22 October)

Event Time Altitude Azimuth Distance (km) Brightness Sun altitude
Exits shadow 22:47:54 12° 273° (W) 2,189 5.8 -41.2°
Maximum altitude 22:47:56 12° 273° (W) 2,189 5.8 -41.2°
Drops below altitude 10° 22:49:41 10° 293° (WNW) 2,308 6.1 -41.4°
Sets 22:53:45 0° 326° (NW) 3,241 7.0 -42.0°
